"Pseudo-MPEC" for A11aGFk

Created 2024 Sep 5 13:22:03 UT using Find_Orb

Click here for an explanation of pseudo-MPECs

 
 Astrometry: 
     A11aGFk* C2024 09 05.31252318 38 33.410+28 36 19.98   ~959b 19.37oVNEOCPT05
     A11aGFk  C2024 09 05.31569818 38 35.254+28 36 06.84   ~959b 19.53oVNEOCPT05
     A11aGFk  C2024 09 05.32247918 38 39.442+28 35 42.68   ~959b 18.78oVNEOCPT05
     A11aGFk  C2024 09 05.33488118 38 46.987+28 34 54.70   ~959b 19.50oVNEOCPT05

Station data:
(T05) ATLAS-HKO, Haleakala  (N20.707551 W156.257010)  US/Hawaii.  Observers
   L. Denneau, A. Heinze, H. Weiland, J. Tonry, H. Flewelling, A.
   Fitzsimmons, D. Young, B. Stalder. Measurers L. Denneau, A. Heinze, J.
   Tonry. 0.5-m f/2.0 Schmidt + CCD.

Orbital elements:  A11aGFk
   Perihelion 2024 Jun 19.83059 +/- 27.6 TT = 19:56:03 (JD 2460481.33059)
Epoch 2024 Sep  5.0 TT = JDT 2460558.5   Earth MOID: 0.0652   Ve: 0.0399
M  77.98814729 +/- 38               (J2000 ecliptic)             AutoNEOCP
n   1.01060961 +/- 0.5              Peri.  263.66684 +/- 80
a   0.98343825 +/- 0.324            Node   313.88438 +/- 60
e   0.3918272 +/- 0.22              Incl.   11.85246 +/- 20
P   0.975/356.214d         H 21.80  G  0.15   U 12.3  SR
q 0.59810039 +/- 0.218    Q 1.36877612 +/- 3.44
From 4 observations 2024 Sept. 5 (32.2 min); mean residual 0".50
Residuals in arcseconds: 
240905 T05  .50+  .31+    240905 T05  .13+  .70+    
240905 T05  .67-  .82-    240905 T05  .04+  .20-    

Ephemerides (geocentric):
Date (UTC) HH   RA             Dec           delta  r     elong  mag " sig PA
---- --------  ------------   ------------  ------ ------ -----  --- --------
2024 09 05 13  18 40 59.662   +28 22 07.30  .12230 1.0543 109.0 19.6  413  96
2024 09 05 14  18 41 25.508   +28 19 34.83  .12257 1.0546 109.1 19.6  475  96
2024 09 05 15  18 41 51.228   +28 17 02.68  .12284 1.0549 109.2 19.6  540  95
2024 09 05 16  18 42 16.823   +28 14 30.87  .12311 1.0551 109.2 19.6  608  95
2024 09 05 17  18 42 42.295   +28 11 59.39  .12337 1.0554 109.3 19.6  681  94
2024 09 05 18  18 43 07.644   +28 09 28.24  .12364 1.0556 109.4 19.7  759  93
2024 09 05 19  18 43 32.870   +28 06 57.43  .12391 1.0559 109.5 19.7  841  92
2024 09 05 20  18 43 57.975   +28 04 26.95  .12418 1.0562 109.6 19.7  929  91
2024 09 05 21  18 44 22.960   +28 01 56.80  .12445 1.0564 109.6 19.7 1023  90
2024 09 05 22  18 44 47.825   +27 59 26.99  .12472 1.0567 109.7 19.7 1123  89
2024 09 05 23  18 45 12.571   +27 56 57.52  .12499 1.0569 109.8 19.7 1229  88
2024 09 06 00  18 45 37.199   +27 54 28.38  .12526 1.0572 109.9 19.7 1341  87
2024 09 06 01  18 46 01.709   +27 51 59.59  .12553 1.0574 109.9 19.7 1461  86
2024 09 06 02  18 46 26.103   +27 49 31.13  .12580 1.0577 110.0 19.7 1588  85
2024 09 06 03  18 46 50.381   +27 47 03.02  .12608 1.0580 110.1 19.7 1723  85
2024 09 06 04  18 47 14.544   +27 44 35.24  .12635 1.0582 110.2 19.7 1866  84
2024 09 06 05  18 47 38.592   +27 42 07.81  .12662 1.0585 110.2 19.7 2017  83
2024 09 06 06  18 48 02.527   +27 39 40.72  .12689 1.0587 110.3 19.7 2179  82
2024 09 06 07  18 48 26.350   +27 37 13.97  .12717 1.0590 110.4 19.7 2350  82
2024 09 06 08  18 48 50.060   +27 34 47.56  .12744 1.0593 110.5 19.7 2533  81
2024 09 06 09  18 49 13.659   +27 32 21.50  .12772 1.0595 110.5 19.7 2727  80
2024 09 06 10  18 49 37.147   +27 29 55.78  .12799 1.0598 110.6 19.7 2934  80
2024 09 06 11  18 50 00.526   +27 27 30.41  .12826 1.0600 110.7 19.7 3155  79
2024 09 06 12  18 50 23.795   +27 25 05.38  .12854 1.0603 110.7 19.7 3392  79
2024 09 06 13  18 50 46.956   +27 22 40.70  .12881 1.0605 110.8 19.7 3647  78
2024 09 06 14  18 51 10.010   +27 20 16.36  .12909 1.0608 110.9 19.7 3920  78
2024 09 06 15  18 51 32.956   +27 17 52.37  .12937 1.0611 111.0 19.7 4215  77
2024 09 06 16  18 51 55.797   +27 15 28.73  .12964 1.0613 111.0 19.7 4535  77
2024 09 06 17  18 52 18.531   +27 13 05.43  .12992 1.0616 111.1 19.7 4881  76
2024 09 06 18  18 52 41.161   +27 10 42.48  .13020 1.0618 111.2 19.7 5260  76
2024 09 06 19  18 53 03.687   +27 08 19.87  .13047 1.0621 111.2 19.7 5674  75
2024 09 06 20  18 53 26.109   +27 05 57.61  .13075 1.0623 111.3 19.7 6129  75
2024 09 06 21  18 53 48.429   +27 03 35.70  .13103 1.0626 111.4 19.7 6632  74
2024 09 06 22  18 54 10.646   +27 01 14.14  .13131 1.0629 111.4 19.7 7192  73
2024 09 06 23  18 54 32.762   +26 58 52.92  .13158 1.0631 111.5 19.7 7817  73
2024 09 07 00  18 54 54.777   +26 56 32.05  .13186 1.0634 111.6 19.7 8520  72
2024 09 07 01  18 55 16.693   +26 54 11.53  .13214 1.0636 111.6 19.7 9316  71
2024 09 07 02  18 55 38.508   +26 51 51.35  .13242 1.0639 111.7 19.7 170'  71
2024 09 07 03  18 56 00.225   +26 49 31.53  .13270 1.0641 111.8 19.7 188'  70
2024 09 07 04  18 56 21.844   +26 47 12.05  .13298 1.0644 111.8 19.7 208'  69
2024 09 07 05  18 56 43.366   +26 44 52.92  .13326 1.0646 111.9 19.7 231'  68
2024 09 07 06  18 57 04.790   +26 42 34.13  .13354 1.0649 112.0 19.8 257'  67
2024 09 07 07  18 57 26.118   +26 40 15.69  .13382 1.0652 112.0 19.8 289'  66
2024 09 07 08  18 57 47.351   +26 37 57.60  .13410 1.0654 112.1 19.8 325'  65
2024 09 07 09  18 58 08.489   +26 35 39.86  .13438 1.0657 112.2 19.8 366'  64
2024 09 07 10  18 58 29.533   +26 33 22.46  .13467 1.0659 112.2 19.8 412'  63
2024 09 07 11  18 58 50.482   +26 31 05.41  .13495 1.0662 112.3 19.8 462'  62
2024 09 07 12  18 59 11.339   +26 28 48.70  .13523 1.0664 112.3 19.8 514'  61